Weather History for Pipestone, MN

Change the Weather History Date:

Sunday, September 15, 2013

  Actual Average Record
Temperature  
Mean Temperature 58 °F -  
Max Temperature 64 °F 69 °F 84 °F (2012)
Min Temperature 51 °F 49 °F 19 °F (2000)
Degree Days  
Heating Degree Days 6    
Growing Degree Days 8 (Base 50)    
Moisture  
Dew Point 54 °F    
Average Humidity 83    
Maximum Humidity 100    
Minimum Humidity 59    
Precipitation  
Precipitation 0.03 in - - ()
Sea Level Pressure  
Sea Level Pressure 30.10 in    
Wind  
Wind Speed 9 mph (NE)    
Max Wind Speed 22 mph    
Max Gust Speed 30 mph    
Visibility 10 miles    
Events Rain , Thunderstorm    
Averages and records for this station are not official NWS values.
T = Trace of Precipitation, MM = Missing Value Source: NWS Daily Summary

Daily Weather History Graph

Daily Weather History Graph

Search for Another Location

Airport:

Trip Planner

Search our weather history database for the weather conditions in past years. The results will help you decide how hot, cold, wet, or windy it might be!

Date:

Astronomy

Sep. 15, 2013 Rise Set
Actual Time 7:04 AM CDT 7:35 PM CDT
Civil Twilight 6:35 AM CDT 8:03 PM CDT
Nautical Twilight 6:01 AM CDT 8:38 PM CDT
Astronomical Twilight 5:26 AM CDT 9:13 PM CDT
Moon 5:09 PM CDT (9/15) 2:36 AM CDT (9/15)
Length of Visible Light 13h 28m
Length of Day
12h 30m
Waxing Gibbous, 82% of the Moon is Illuminated
Sep 15
Waxing Gibbous
Sep 19
Full
Sep 26
Last Quarter
Oct 4
New
Oct 11
First Quarter

Hourly Weather History & Observations

Time (CDT) Temp. Dew Point Humidity Pressure Visibility Wind Dir Wind Speed Gust Speed Precip Events Conditions
12:13 AM 64.4 °F 55.4 °F 73% 29.82 in 10.0 mi SW 8.1 mph - N/A Rain Light Rain
12:33 AM 60.8 °F 57.2 °F 88% 29.81 in 7.0 mi SSW 9.2 mph - 0.11 in Rain Rain
12:54 AM 60.8 °F 57.2 °F 88% 29.82 in 10.0 mi SW 8.1 mph - N/A Thunderstorm Overcast
1:13 AM 60.8 °F 57.2 °F 88% 29.82 in 10.0 mi Calm Calm - N/A   Overcast
1:33 AM 60.8 °F 57.2 °F 88% 29.82 in 10.0 mi Calm Calm - N/A   Mostly Cloudy
1:53 AM 60.8 °F 57.2 °F 88% 29.84 in 10.0 mi North 4.6 mph - N/A   Mostly Cloudy
2:13 AM 60.8 °F 57.2 °F 88% 29.84 in 10.0 mi NE 4.6 mph - N/A   Overcast
2:34 AM 60.8 °F 57.2 °F 88% 29.85 in 10.0 mi NE 6.9 mph - N/A   Overcast
2:53 AM 60.8 °F 57.2 °F 88% 29.85 in 10.0 mi East 5.8 mph - N/A Rain Light Rain
3:13 AM 59.0 °F 57.2 °F 94% 29.86 in 10.0 mi NE 6.9 mph - 0.02 in Rain Light Rain
3:34 AM 59.0 °F 57.2 °F 94% 29.87 in 10.0 mi NE 9.2 mph - N/A   Drizzle
3:53 AM 59.0 °F 57.2 °F 94% 29.88 in 10.0 mi NNE 9.2 mph - N/A Rain Rain
4:13 AM 59.0 °F 55.4 °F 88% 29.89 in 10.0 mi NE 10.4 mph 18.4 mph N/A   Overcast
4:33 AM 57.2 °F 55.4 °F 94% 29.90 in 10.0 mi NE 11.5 mph 20.7 mph N/A Rain Light Rain
4:53 AM 57.2 °F 55.4 °F 94% 29.91 in 10.0 mi NNE 13.8 mph 21.9 mph 0.01 in Rain Light Rain
5:13 AM 57.2 °F 55.4 °F 94% 29.92 in 10.0 mi NNE 13.8 mph 20.7 mph N/A   Overcast
5:33 AM 57.2 °F 55.4 °F 94% 29.93 in 10.0 mi NNE 17.3 mph 25.3 mph N/A   Overcast
5:53 AM 55.4 °F 55.4 °F 100% 29.94 in 10.0 mi NE 21.9 mph 29.9 mph N/A   Overcast
6:13 AM 55.4 °F 55.4 °F 100% 29.96 in 10.0 mi NNE 16.1 mph 23.0 mph N/A   Overcast
6:33 AM 57.2 °F 53.6 °F 88% 29.98 in 10.0 mi NE 16.1 mph 26.5 mph N/A   Overcast
6:53 AM 57.2 °F 53.6 °F 88% 30.00 in 10.0 mi NNE 12.7 mph - N/A   Overcast
7:14 AM 57.2 °F 53.6 °F 88% 30.01 in 10.0 mi NE 16.1 mph 21.9 mph N/A   Overcast
7:33 AM 57.2 °F 53.6 °F 88% 30.02 in 10.0 mi NE 12.7 mph 19.6 mph N/A   Overcast
7:53 AM 57.2 °F 53.6 °F 88% 30.04 in 10.0 mi NE 13.8 mph 23.0 mph N/A   Overcast
8:14 AM 57.2 °F 53.6 °F 88% 30.05 in 10.0 mi NE 13.8 mph - N/A   Overcast
8:33 AM 57.2 °F 53.6 °F 88% 30.06 in 10.0 mi NE 16.1 mph 20.7 mph N/A   Overcast
8:53 AM 57.2 °F 51.8 °F 82% 30.07 in 10.0 mi NE 10.4 mph 20.7 mph N/A   Overcast
9:14 AM 57.2 °F 51.8 °F 82% 30.08 in 10.0 mi NE 12.7 mph 17.3 mph N/A   Overcast
9:33 AM 57.2 °F 53.6 °F 88% 30.09 in 10.0 mi NE 11.5 mph 17.3 mph N/A   Overcast
9:53 AM 57.2 °F 53.6 °F 88% 30.10 in 10.0 mi NE 12.7 mph 20.7 mph N/A   Overcast
10:13 AM 57.2 °F 53.6 °F 88% 30.11 in 10.0 mi NE 15.0 mph 25.3 mph N/A   Overcast
10:33 AM 57.2 °F 53.6 °F 88% 30.12 in 10.0 mi NE 15.0 mph 20.7 mph N/A   Overcast
10:53 AM 57.2 °F 51.8 °F 82% 30.12 in 10.0 mi NE 13.8 mph 18.4 mph N/A   Overcast
11:13 AM 59.0 °F 51.8 °F 77% 30.13 in 10.0 mi NE 12.7 mph 21.9 mph N/A   Overcast
11:33 AM 59.0 °F 51.8 °F 77% 30.14 in 10.0 mi NE 15.0 mph 20.7 mph N/A   Overcast
11:53 AM 57.2 °F 53.6 °F 88% 30.15 in 10.0 mi NE 11.5 mph 21.9 mph N/A   Overcast
12:13 PM 57.2 °F 53.6 °F 88% 30.16 in 10.0 mi NE 13.8 mph 19.6 mph N/A   Overcast
12:34 PM 57.2 °F 53.6 °F 88% 30.16 in 10.0 mi NE 11.5 mph 18.4 mph N/A   Overcast
12:53 PM 59.0 °F 53.6 °F 82% 30.17 in 10.0 mi NE 11.5 mph 19.6 mph N/A   Overcast
1:13 PM 59.0 °F 53.6 °F 82% 30.17 in 10.0 mi NE 13.8 mph 20.7 mph N/A   Overcast
1:33 PM 59.0 °F 53.6 °F 82% 30.19 in 10.0 mi NE 11.5 mph 18.4 mph N/A   Overcast
1:53 PM 59.0 °F 53.6 °F 82% 30.19 in 10.0 mi NNE 10.4 mph - N/A   Overcast
2:13 PM 60.8 °F 53.6 °F 77% 30.20 in 10.0 mi NE 15.0 mph - N/A   Overcast
2:34 PM 60.8 °F 53.6 °F 77% 30.20 in 10.0 mi NE 8.1 mph 16.1 mph N/A   Overcast
2:53 PM 62.6 °F 53.6 °F 72% 30.20 in 10.0 mi NE 9.2 mph - N/A   Overcast
3:13 PM 62.6 °F 53.6 °F 72% 30.21 in 10.0 mi ENE 5.8 mph - N/A   Overcast
3:30 PM 60.8 °F 53.6 °F 77% 30.21 in 10.0 mi NE 8.1 mph - N/A   Overcast
3:53 PM 60.8 °F 53.6 °F 77% 30.22 in 10.0 mi NE 12.7 mph 17.3 mph N/A   Overcast
4:14 PM 60.8 °F 53.6 °F 77% 30.22 in 10.0 mi ENE 9.2 mph - N/A   Overcast
4:33 PM 62.6 °F 53.6 °F 72% 30.22 in 10.0 mi NE 11.5 mph - N/A   Overcast
4:53 PM 64.4 °F 53.6 °F 68% 30.22 in 10.0 mi NE 11.5 mph 16.1 mph N/A   Mostly Cloudy
5:14 PM 64.4 °F 51.8 °F 64% 30.22 in 10.0 mi NE 10.4 mph - N/A   Scattered Clouds
5:33 PM 64.4 °F 51.8 °F 64% 30.22 in 10.0 mi ENE 6.9 mph - N/A   Scattered Clouds
5:53 PM 64.4 °F 50.0 °F 59% 30.22 in 10.0 mi ENE 5.8 mph - N/A   Scattered Clouds
6:13 PM 62.6 °F 51.8 °F 68% 30.22 in 10.0 mi NE 5.8 mph - N/A   Clear
6:33 PM 64.4 °F 51.8 °F 64% 30.23 in 10.0 mi East 8.1 mph - N/A   Scattered Clouds
6:53 PM 62.6 °F 53.6 °F 72% 30.24 in 10.0 mi East 4.6 mph - N/A   Scattered Clouds
7:13 PM 62.6 °F 53.6 °F 72% 30.24 in 10.0 mi Calm Calm - N/A   Scattered Clouds
7:33 PM 60.8 °F 51.8 °F 72% 30.24 in 10.0 mi ENE 3.5 mph - N/A   Scattered Clouds
7:53 PM 57.2 °F 51.8 °F 82% 30.25 in 10.0 mi Calm Calm - N/A   Clear
8:13 PM 57.2 °F 51.8 °F 82% 30.26 in 10.0 mi Calm Calm - N/A   Scattered Clouds
8:33 PM 57.2 °F 51.8 °F 82% 30.27 in 10.0 mi Calm Calm - N/A   Scattered Clouds
8:53 PM 57.2 °F 51.8 °F 82% 30.27 in 10.0 mi Calm Calm - N/A   Clear
9:13 PM 55.4 °F 51.8 °F 88% 30.28 in 10.0 mi Calm Calm - N/A   Scattered Clouds
9:33 PM 55.4 °F 51.8 °F 88% 30.28 in 10.0 mi Calm Calm - N/A   Scattered Clouds
9:53 PM 55.4 °F 51.8 °F 88% 30.29 in 10.0 mi ENE 4.6 mph - N/A   Clear
10:13 PM 53.6 °F 51.8 °F 94% 30.29 in 10.0 mi ENE 4.6 mph - N/A   Clear
10:34 PM 53.6 °F 50.0 °F 88% 30.30 in 10.0 mi Calm Calm - N/A   Clear
10:53 PM 53.6 °F 48.2 °F 82% 30.30 in 10.0 mi ENE 4.6 mph - N/A   Clear
11:13 PM 53.6 °F 48.2 °F 82% 30.30 in 10.0 mi ENE 4.6 mph - N/A   Scattered Clouds
11:33 PM 53.6 °F 48.2 °F 82% 30.31 in 10.0 mi ENE 4.6 mph - N/A   Scattered Clouds
11:53 PM 51.8 °F 48.2 °F 88% 30.31 in 10.0 mi Calm Calm - N/A   Clear